Tiempo cada hora Abrest

Hoy, 26 Octubre, Lunes

Tiempo Temperatura Precipitaciones Viento Presión Humedad
00:00 +8°C° 0.2 mm 2 mps 727 mmHg 93%
01:00 +9°C° 0 mm 1 mps 727 mmHg 93%
02:00 +9°C° 0 mm 1 mps 727 mmHg 93%
03:00 +9°C° 0 mm 1 mps 727 mmHg 93%
04:00 +8°C° 0 mm 1 mps 727 mmHg 93%
05:00 +8°C° 0 mm 1 mps 727 mmHg 93%
06:00 +8°C° 0 mm 1 mps 727 mmHg 93%
07:00 +8°C° 0 mm 2 mps 727 mmHg 89%
08:00 +9°C° 0 mm 2 mps 727 mmHg 85%
09:00 +10°C° 0 mm 2 mps 727 mmHg 81%
10:00 +11°C° 0.1 mm 3 mps 727 mmHg 75%
11:00 +12°C° 0.1 mm 3 mps 727 mmHg 70%
12:00 +13°C° 0 mm 4 mps 727 mmHg 59%
13:00 +12°C° 0.1 mm 4 mps 727 mmHg 61%
14:00 +12°C° 0.1 mm 3 mps 727 mmHg 64%
15:00 +12°C° 0.1 mm 3 mps 727 mmHg 66%
16:00 +7°C° 0.2 mm 2 mps 729 mmHg 89%
17:00 +7°C° 0.2 mm 2 mps 728 mmHg 88%
18:00 +7°C° 0.2 mm 2 mps 728 mmHg 87%
19:00 +7°C° 0 mm 2 mps 728 mmHg 86%
20:00 +7°C° 0 mm 2 mps 729 mmHg 88%
21:00 +6°C° 0 mm 2 mps 729 mmHg 90%
22:00 +5°C° 0 mm 3 mps 729 mmHg 90%
23:00 +5°C° 0 mm 3 mps 729 mmHg 91%

Mañana, 27 Octubre, Martes

Tiempo Temperatura Precipitaciones Viento Presión Humedad
00:00 +5°C° 0 mm 3 mps 729 mmHg 91%
01:00 +7°C° 0 mm 2 mps 728 mmHg 88%
02:00 +6°C° 0 mm 2 mps 729 mmHg 90%
03:00 +5°C° 0 mm 2 mps 729 mmHg 91%
04:00 +5°C° 0 mm 2 mps 729 mmHg 91%
05:00 +5°C° 0 mm 2 mps 729 mmHg 91%
06:00 +5°C° 0 mm 2 mps 729 mmHg 91%
07:00 +7°C° 0 mm 2 mps 730 mmHg 86%
08:00 +8°C° 0 mm 2 mps 730 mmHg 82%
09:00 +10°C° 0 mm 2 mps 730 mmHg 77%
10:00 +10°C° 0 mm 2 mps 730 mmHg 77%
11:00 +10°C° 0 mm 2 mps 730 mmHg 76%
12:00 +12°C° 0 mm 2 mps 730 mmHg 75%
13:00 +10°C° 0.1 mm 3 mps 730 mmHg 79%
14:00 +10°C° 0.1 mm 3 mps 729 mmHg 82%
15:00 +10°C° 0.1 mm 3 mps 729 mmHg 86%
16:00 +9°C° 0.2 mm 3 mps 729 mmHg 87%
17:00 +9°C° 0.2 mm 3 mps 729 mmHg 89%
18:00 +9°C° 0.2 mm 3 mps 730 mmHg 90%
19:00 +9°C° 0.1 mm 3 mps 730 mmHg 91%
20:00 +9°C° 0.1 mm 3 mps 730 mmHg 91%
21:00 +9°C° 0.1 mm 3 mps 730 mmHg 92%
22:00 +9°C° 0 mm 3 mps 729 mmHg 83%
23:00 +9°C° 0 mm 3 mps 729 mmHg 84%

Pasado mañana, 28 Octubre, Miércoles

Tiempo Temperatura Precipitaciones Viento Presión Humedad
00:00 +9°C° 0 mm 3 mps 729 mmHg 85%
01:00 +9°C° 0 mm 3 mps 729 mmHg 86%
02:00 +9°C° 0 mm 3 mps 729 mmHg 86%
03:00 +9°C° 0 mm 3 mps 729 mmHg 87%
04:00 +9°C° 0 mm 3 mps 729 mmHg 87%
05:00 +9°C° 0 mm 3 mps 729 mmHg 87%
06:00 +9°C° 0 mm 3 mps 730 mmHg 87%
07:00 +11°C° 0 mm 3 mps 730 mmHg 84%
08:00 +12°C° 0 mm 3 mps 730 mmHg 81%
09:00 +13°C° 0 mm 4 mps 731 mmHg 77%
10:00 +13°C° 0.1 mm 4 mps 731 mmHg 76%
11:00 +14°C° 0.1 mm 4 mps 731 mmHg 74%
12:00 +14°C° 0.1 mm 4 mps 731 mmHg 72%
13:00 +14°C° 0.1 mm 4 mps 731 mmHg 71%
14:00 +14°C° 0.1 mm 4 mps 731 mmHg 69%
15:00 +14°C° 0.1 mm 3 mps 731 mmHg 68%
16:00 +14°C° 0 mm 3 mps 731 mmHg 72%
17:00 +13°C° 0 mm 3 mps 731 mmHg 75%
18:00 +12°C° 0 mm 3 mps 732 mmHg 79%
19:00 +12°C° 0 mm 3 mps 732 mmHg 79%
20:00 +11°C° 0 mm 3 mps 732 mmHg 80%
21:00 +11°C° 0 mm 3 mps 733 mmHg 80%
22:00 +11°C° 0.1 mm 3 mps 733 mmHg 81%
23:00 +11°C° 0.1 mm 3 mps 733 mmHg 83%

29 Octubre, Jueves

Tiempo Temperatura Precipitaciones Viento Presión Humedad
00:00 +11°C° 0.1 mm 3 mps 733 mmHg 84%
01:00 +12°C° 0.1 mm 2 mps 734 mmHg 85%
02:00 +10°C° 0.1 mm 2 mps 734 mmHg 87%
03:00 +10°C° 0.1 mm 2 mps 734 mmHg 88%
04:00 +10°C° 0 mm 2 mps 734 mmHg 89%
05:00 +9°C° 0 mm 2 mps 735 mmHg 89%
06:00 +9°C° 0 mm 2 mps 735 mmHg 90%
07:00 +10°C° 0 mm 2 mps 735 mmHg 86%
08:00 +11°C° 0 mm 3 mps 736 mmHg 81%
09:00 +13°C° 0 mm 3 mps 736 mmHg 77%
10:00 +13°C° 0 mm 3 mps 736 mmHg 73%
11:00 +14°C° 0 mm 3 mps 736 mmHg 68%
12:00 +16°C° 0 mm 3 mps 736 mmHg 63%
13:00 +16°C° 0 mm 3 mps 736 mmHg 64%
14:00 +17°C° 0 mm 3 mps 736 mmHg 64%
15:00 +17°C° 0 mm 2 mps 736 mmHg 64%
16:00 +15°C° 0 mm 2 mps 736 mmHg 71%
17:00 +13°C° 0 mm 2 mps 736 mmHg 77%
18:00 +12°C° 0 mm 1 mps 736 mmHg 83%
19:00 +11°C° 0 mm 1 mps 736 mmHg 84%
20:00 +11°C° 0 mm 1 mps 737 mmHg 85%
21:00 +11°C° 0 mm 1 mps 737 mmHg 86%
22:00 +10°C° 0 mm 1 mps 737 mmHg 87%
23:00 +10°C° 0 mm 1 mps 737 mmHg 87%

30 Octubre, Viernes

Tiempo Temperatura Precipitaciones Viento Presión Humedad
00:00 +10°C° 0 mm 1 mps 737 mmHg 88%
01:00 +10°C° 0 mm 1 mps 736 mmHg 88%
02:00 +9°C° 0 mm 1 mps 736 mmHg 88%
03:00 +9°C° 0 mm 1 mps 736 mmHg 87%
04:00 +9°C° 0 mm 1 mps 736 mmHg 86%
05:00 +8°C° 0 mm 1 mps 736 mmHg 85%
06:00 +8°C° 0 mm 1 mps 735 mmHg 83%
07:00 +10°C° 0 mm 1 mps 735 mmHg 76%
08:00 +12°C° 0 mm 2 mps 736 mmHg 69%
09:00 +14°C° 0 mm 2 mps 736 mmHg 61%
10:00 +16°C° 0 mm 2 mps 736 mmHg 58%
11:00 +18°C° 0 mm 2 mps 735 mmHg 55%
12:00 +19°C° 0 mm 3 mps 735 mmHg 51%
13:00 +19°C° 0 mm 3 mps 735 mmHg 55%
14:00 +19°C° 0 mm 3 mps 735 mmHg 59%
15:00 +19°C° 0 mm 3 mps 734 mmHg 63%
16:00 +17°C° 0 mm 3 mps 734 mmHg 69%
17:00 +16°C° 0 mm 3 mps 734 mmHg 74%
18:00 +13°C° 0 mm 3 mps 733 mmHg 79%
19:00 +13°C° 0 mm 3 mps 733 mmHg 80%
20:00 +12°C° 0 mm 3 mps 733 mmHg 82%
21:00 +12°C° 0 mm 3 mps 733 mmHg 84%
22:00 +12°C° 0 mm 3 mps 733 mmHg 83%
23:00 +12°C° 0 mm 3 mps 733 mmHg 83%

31 Octubre, Sábado

Tiempo Temperatura Precipitaciones Viento Presión Humedad
00:00 +12°C° 0 mm 3 mps 732 mmHg 83%
01:00 +12°C° 0 mm 3 mps 732 mmHg 82%
02:00 +12°C° 0 mm 4 mps 732 mmHg 81%
03:00 +12°C° 0 mm 4 mps 732 mmHg 80%
04:00 +13°C° 0 mm 4 mps 732 mmHg 78%
05:00 +13°C° 0 mm 4 mps 732 mmHg 76%
06:00 +13°C° 0 mm 4 mps 732 mmHg 75%
Mostrar más

Necesitamos Su Consentimiento

Meteoprog y nuestros Proveedores de Servicios pueden almacenar y acceder a sus datos personales como cookies, identificadores de dispositivo u otras tecnologías similares de su dispositivo y procesar dichos datos para personalizar contenido y anuncios, además de ofrecer funciones de redes sociales y analizar el tráfico.

  • Almacenar y/o acceder a información en su dispositivo

    Se puede almacenar o acceder a cookies, identificadores de dispositivo u otra información de su dispositivo para los fines anteriormente indicados.

  • Anuncios y contenido personalizados, medición de anuncios y contenido, percepciones del público, y desarrollo de productos

    Los anuncios y el contenido pueden personalizarse en base a su perfil. Se pueden añadir más datos para personalizar mejor los anuncios y contenidos. Se puede medir el rendimiento de los anuncios y contenidos. Se puede obtener la percepción sobre el público que ha visto los anuncios y contenidos. Dichos datos pueden usarse para desarrollar o mejorar la experiencia del usuario, sistemas y software.

Al hacer clic en ‘Estoy De Acuerdo’ usted permitirá el uso de las cookies, identificadores de dispositivo, balizas web u otras tecnologías similares indicadas. Su configuración puede cambiarse desde el navegador de su dispositivo.

Para ciertos fines, los intereses legítimos pueden ser considerados por encima del consentimiento. Puede leer más sobre ello en nuestra Política de Privacidad y Cookies.